Flag for U.S.A. Weather past 2 weeks in Orange, California, U.S.A.

Now
57 °F

Clear.


Feels Like: 53 °F
Forecast: 39 / 62 °F
Wind: 16 mph from Northeast

Location: John Wayne Airport-Orange County Airport

Current Time: Dec 27, 2014 at 5:55:01 AM

Latest Report: Dec 27, 2014 at 4:53 AM


Visibility: 10 mi

Pressure: 30.23 "Hg

Humidity: 15%

Dew point: 9 °F

Location of OrangeLocation

Historic Weather in Orange — Graph

°F

Orange temperature yesterday

Maximum temperature yesterday: 66 °F (at 11:53 AM)
Minimum temperature yesterday: 54 °F (at 12:53 AM)
Average temperature yesterday: 60 °F

Past Weeks' High & Low Weather Summary

 TemperatureHumidityPressure
High77 °F (Dec 23, 11:53 AM)90% (Dec 23, 4:53 AM)30.24 "Hg (Dec 23, 4:53 AM)
Low50 °F (Dec 14, 5:53 AM)9% (Dec 26, 3:53 PM)29.76 "Hg (Dec 25, 2:53 AM)
Average61 °F61%30.05 "Hg
* Reported Dec 12 5:00 AM — Dec 27 4:53 AM, Orange, Weather by CustomWeather, © 2014

Note: Actual official high and low records may vary slightly from our data, if they occured in-between our weather recording intervals... More about our weather records

Advertising

Orange weather history for previous 24 hours

 ConditionsComfort  
Time TempWeatherWind HumidityBarometerVisibility
4:53 AM
Dec 27
57 °FClear.16 mph15%30.23 "Hg10 mi
3:53 AM55 °FClear.8 mph18%30.22 "Hg10 mi
2:53 AM56 °FClear.9 mph17%30.22 "Hg10 mi
1:53 AM57 °FClear.10 mph17%30.20 "Hg10 mi
12:53 AM56 °FClear.9 mph18%30.20 "Hg10 mi
11:53 PM
Dec 26
57 °FClear.9 mph17%30.20 "Hg10 mi
10:53 PM58 °FClear.9 mph15%30.19 "Hg10 mi
9:53 PM59 °FClear.10 mph15%30.18 "Hg10 mi
8:53 PM58 °FClear.10 mph17%30.17 "Hg10 mi
7:53 PM57 °FClear.3 mph20%30.15 "Hg10 mi
6:53 PM58 °FClear.5 mph18%30.13 "Hg10 mi
5:53 PM59 °FClear.5 mph18%30.10 "Hg10 mi
4:53 PM63 °FClear.6 mph12%30.07 "Hg10 mi
3:53 PM66 °FSunny.5 mph9%30.06 "Hg10 mi
2:53 PM66 °FSunny.3 mph10%30.05 "Hg10 mi
1:53 PM66 °FSunny.3 mph11%30.03 "Hg10 mi
12:53 PM65 °FSunny.9 mph11%30.03 "Hg10 mi
11:53 AM66 °FSunny.10 mph11%30.06 "Hg10 mi
10:53 AM64 °FSunny.12 mph11%30.08 "Hg10 mi
9:53 AM63 °FSunny.12 mph13%30.09 "Hg10 mi
8:53 AM61 °FSunny.13 mph14%30.06 "Hg10 mi
7:53 AM58 °FSunny.12 mph16%30.04 "Hg10 mi
6:53 AM56 °FClear.12 mph16%30.02 "Hg10 mi
5:53 AM55 °FClear.7 mph18%29.99 "Hg10 mi
Weather by CustomWeather, © 2014

See weather overviewHow to use our weather pages